NOSS 3-4 (C) - Orbit

View from above orbital plane
View from above orbital plane
View from above satellite
View from above satellite

Ground track
Ground track

The orbit data is extracted from the following two-line orbital elements,

1 31708U 07027C   13107.84579751 0.00000000  00000-0  00000-0 0    06
2 31708  63.4040 359.8773 0079000  55.3591 304.6409 13.40616857    01
Epoch (UTC): 17 April 2013 20:17:56
Eccentricity: 0.0079000
inclination: 63.4040°
perigee height: 1048 km
apogee height: 1166 km
right ascension of ascending node: 359.8773°
argument of perigee: 55.3591°
revolutions per day: 13.40616857
mean anomaly at epoch: 304.6409°
orbit number at epoch: 0

The dashed part of the orbit path shows where the satellite is in the earth's shadow,  

Developed and maintained by Chris Peat, Heavens-Above GmbH. Please read the updated FAQ before sending e-mail. Imprint. DLR